Temp
14 14 14 14 14 14 13 14 14 15 15 15 15 16 16 16 17 16 17 17 18 20 21 21 20 21 22 25 24 25 26 26 27 27 28 28 28 27 28 28 27 26 27 30 31 31 31 31 31 30 31 30 30 30 31 33 31 31 31 31 31 31 34
13 13 12 13 13 13 13 13 13 13 13 13 13 14 17 16 15 15 15 15 15 16 17 16 17 18 18 21 22 24 24 25 25 25 25 26 26 25 25 27 25 26 25 25 28 28 31 29 31 29 31 29 30 30 29 29 30 29 30 30 30 30 30
12 12 12 11 12 12 12 12 11 11 11 11 12 14 15 16 14 13 13 14 14 15 15 15 15 15 16 18 18 20 21 23 22 23 23 23 25 24 24 25 25 24 23 24 25 28 27 28 28 28 29 29 29 29 29 29 30 29 29 28 29 29 28
11 10 10 9 10 10 10 10 11 11 9 10 9 11 14 15 14 11 11 11 12 13 14 15 16 17 16 15 13 15 17 18 19 20 21 22 23 23 23 23 23 23 22 23 22 25 25 26 25 26 28 28 28 27 27 27 28 28 27 27 27 28 28
6 7 7 7 8 8 7 8 9 10 9 9 9 9 10 12 11 11 11 11 11 14 11 13 13 15 15 16 16 18 18 18 16 18 20 20 21 21 22 22 22 22 22 21 20 22 24 24 24 25 25 26 25 25 25 25 26 27 26 27 27 26 27
6 6 7 6 6 6 6 6 6 7 7 7 6 8 8 9 9 11 12 12 12 11 10 10 10 12 14 16 17 17 17 18 17 17 18 18 20 20 21 20 21 21 20 20 20 20 20 22 22 23 23 24 24 24 24 25 25 25 25 25 27 27 26
3 5 5 6 6 6 6 7 6 5 6 6 6 5 6 8 9 10 11 11 11 11 11 10 11 11 10 11 15 16 16 17 17 18 17 18 19 20 19 19 19 20 20 19 19 20 20 20 22 22 21 24 24 24 24 22 23 24 24 22 22 24 25
5 6 4 5 4 7 5 5 4 4 4 5 5 5 5 7 8 10 10 9 10 10 10 10 10 9 8 8 9 11 14 15 16 17 17 19 18 18 18 18 18 18 19 19 19 19 19 20 20 21 22 23 22 22 22 21 20 20 20 21 20 20 21
5 5 6 6 5 5 6 6 7 4 4 6 5 5 7 11 12 10 9 9 10 10 9 8 9 9 6 11 17 19 18 18 18 15 14 16 17 17 17 17 17 17 17 17 18 18 19 19 19 20 20 20 20 20 19 19 18 18 19 19 20 20 19
4 3 4 5 6 5 5 6 6 10 12 13 11 10 12 13 12 9 8 9 11 11 9 8 8 10 17 17 17 17 17 17 17 18 15 13 15 16 16 16 16 16 16 16 16 17 17 16 16 18 18 18 18 19 19 19 19 18 19 19 19 19 18
4 4 4 4 3 3 5 6 7 11 15 18 20 16 12 12 13 12 10 10 10 9 9 8 8 10 14 14 13 9 15 15 16 16 17 18 18 17 15 14 14 14 16 15 15 17 16 16 16 17 18 17 18 18 17 17 17 17 16 15 15 14 18
4 4 4 3 2 2 4 4 9 12 17 18 19 18 15 13 13 14 13 11 9 9 9 9 10 11 12 12 11 8 6 9 13 14 15 15 16 16 17 17 15 14 14 14 14 15 16 16 15 16 16 17 17 17 16 17 16 16 15 14 14 15 14
5 4 4 3 2 3 4 4 8 11 16 18 19 20 17 14 14 14 13 13 12 11 9 8 8 8 9 9 13 12 4 0 1 10 12 13 14 14 14 15 15 16 14 13 11 12 13 15 15 15 16 16 15 16 13 15 14 14 13 14 14 14 14
4 4 3 3 3 3 3 3 7 10 16 18 19 20 19 13 13 14 13 13 12 11 9 7 5 5 5 5 3 3 1 -1 -1 -0 1 2 1 1 6 11 13 13 13 13 11 10 10 13 14 13 14 16 16 13 13 11 11 11 10 12 13 15 13
5 5 4 3 3 3 3 4 8 11 14 17 19 20 17 11 9 9 9 9 8 6 5 4 4 4 4 5 4 2 1 -1 -1 -3 0 1 3 5 3 2 3 2 2 5 6 8 10 12 14 14 15 15 16 16 15 15 13 12 13 13 12 11 12
4 4 4 5 4 3 2 3 8 10 12 15 18 18 13 7 5 5 5 5 4 4 3 3 3 3 3 4 4 7 10 9 3 -2 -3 -1 -2 -2 -1 -2 6 11 14 11 10 8 10 11 13 17 16 17 16 16 16 17 17 15 13 12 11 11 12
6 5 5 5 4 3 3 4 6 9 11 12 17 15 9 4 3 3 2 2 2 2 2 2 2 2 2 3 3 7 9 10 10 -2 -2 -2 -3 -2 -3 2 1 7 12 15 16 17 17 17 17 17 18 19 19 15 13 12 13 12 14 11 10 11 10
5 5 4 4 4 4 4 4 6 8 9 11 14 13 9 6 3 1 2 2 2 1 1 3 7 7 4 2 3 7 9 10 8 -3 -3 -4 -3 -3 -1 1 -3 -8 -4 7 9 9 10 10 11 12 13 13 15 13 12 8 6 10 10 9 11 9 11
3 3 4 4 5 6 6 5 5 8 9 10 12 12 8 6 0 1 0 1 2 2 1 2 4 6 6 5 5 8 10 11 8 -0 -2 1 2 3 1 2 -4 -5 -4 -5 -4 -3 -2 1 4 1 -1 4 9 10 10 8 8 8 6 6 8 10 10
3 3 4 5 5 4 3 2 2 4 7 8 10 11 9 6 2 2 2 1 1 1 0 0 -0 3 5 7 8 9 10 11 12 7 5 6 5 4 2 -1 -4 -3 -3 -0 -1 -2 -5 -2 -3 -3 -3 -3 -1 3 4 6 5 6 6 5 6 7 9
3 4 4 4 3 1 1 2 2 3 6 7 7 9 8 4 3 2 1 0 0 -1 -1 -1 -0 -2 3 5 7 8 9 11 12 12 9 8 6 6 7 6 -2 1 7 1 -1 -0 -1 -2 -5 -4 -7 -6 -5 -2 0 1 2 0 2 3 3 3 5
1 2 2 1 1 -0 -0 2 4 3 4 6 7 8 8 5 3 3 1 -1 -1 -1 -1 -2 -1 -2 1 5 6 7 8 10 10 11 9 9 11 12 12 9 8 4 1 -1 -2 -3 -3 -3 -4 -5 -6 -5 -4 -3 0 0 -0 -1 -1 1 3 3 2
-1 -1 -1 -1 -2 -2 -1 -1 1 4 3 5 6 7 7 7 6 7 5 1 0 1 1 -2 -4 -1 3 5 6 7 8 8 8 8 6 10 11 11 11 10 6 5 1 -1 -2 -4 -3 -4 -5 -7 -4 -4 -4 -3 -3 -3 -3 -3 -2 1 3 5 5
-1 -3 -3 -3 -3 -3 -2 -1 -1 1 3 3 5 5 6 7 7 7 4 2 1 1 0 -1 -2 -3 4 5 6 6 7 7 8 7 9 9 9 9 9 6 2 -1 -3 -1 -1 -2 -2 -3 -3 -7 -8 -7 -4 -4 -3 -2 -4 -3 -5 -4 -1 1 5
-3 -3 -3 -3 -3 -3 -5 -3 -3 -3 0 3 4 5 5 6 6 6 7 4 1 0 -1 1 4 5 6 5 6 6 6 6 6 7 7 7 7 6 3 1 -1 -3 -5 -4 -3 -3 -3 -3 -2 -6 -5 -6 -8 -4 -4 -6 -4 -7 -4 -4 -4 -2 2
-3 -3 -3 -3 -3 -3 -4 -4 -6 -4 -5 -1 1 2 3 5 5 5 5 6 3 4 5 5 6 7 6 6 5 3 -1 -1 -1 4 5 5 5 -3 -4 -4 -6 -5 -4 -4 -3 -3 -3 -3 -6 -6 -4 -4 -5 -5 -4 -6 -7 -5 -3 -7 -6 -4 -2
-4 -4 -4 -4 -4 -4 -4 -5 -6 -5 -8 -6 -7 -5 -3 -2 -1 1 3 1 -2 1 -1 1 2 -0 3 2 4 3 4 4 4 2 1 -1 -2 -3 -4 -3 -5 -4 -3 -2 -3 -3 -3 -4 -4 -7 -6 -7 -8 -5 -5 -7 -4 -7 -7 -5 -6 -7 -4
-6 -6 -6 -5 -5 -4 -4 -4 -6 -6 -9 -5 -6 -6 -6 -8 -9 -10 -10 -6 -5 -7 -7 -7 -0 -1 -5 -6 -6 -6 -9 -11 -10 -7 -5 -7 -9 -7 -6 -2 1 2 -0 -1 -1 -1 -4 -5 -8 -9 -7 -8 -9 -6 -6 -6 -6 -6 -7 -6 -7 -7 -7
-6 -4 -4 -4 -4 -5 -5 -3 -3 -5 0 -0 2 1 -3 -6 -7 -8 -14 -6 -1 -5 -9 -10 -12 -13 -8 -12 -9 -10 -10 -11 -11 -9 -8 -10 -9 -10 -9 -9 -13 -9 -7 -5 -5 -5 -5 -5 -8 -7 -9 -8 -9 -8 -7 -9 -10 -7 -10 -9 -8 -7 -6
-1 -1 -1 -3 -2 -1 -3 -4 -2 3 4 4 5 5 6 5 5 4 -0 -1 1 1 -9 -9 -13 -11 -9 -9 -11 -10 -10 -10 -12 -10 -10 -9 -6 -6 -9 -8 -8 -7 -7 -6 -6 -5 -6 -6 -7 -7 -8 -8 -7 -7 -9 -7 -3 -8 -10 -9 -9 -8 -7
2 2 3 2 -1 0 3 3 3 3 4 4 4 4 5 5 5 4 4 5 3 0 -2 -5 -7 -8 -9 -8 -9 -9 -8 -8 -11 -10 -10 -9 -9 -9 -8 -6 -7 -7 -6 -6 -6 -6 -6 -6 -6 -6 -6 -7 -6 -6 -6 -11 -9 -9 -10 -9 -8 -10 -9
1 2 2 2 2 1 -1 2 2 3 3 4 4 4 5 5 4 4 4 3 4 0 -1 -3 -6 -7 -8 -10 -11 -9 -8 -9 -10 -10 -10 -10 -12 -9 -8 -8 -8 -6 -7 -7 -7 -7 -7 -7 -7 -6 -6 -5 -6 -5 -7 -9 -9 -12 -11 -10 -12 -9 -8
1 1 1 2 2 3 2 2 2 3 3 3 4 4 4 5 5 4 3 3 -0 -3 -4 -5 -8 -9 -9 -11 -10 -10 -10 -10 -10 -10 -10 -10 -10 -9 -8 -8 -7 -5 -7 -7 -7 -7 -7 -7 -6 -6 -6 -6 -6 -7 -7 -8 -8 -10 -10 -10 -10 -8 -7
0 0 1 1 1 1 1 2 2 2 2 2 3 3 3 3 3 4 4 2 -2 -4 -6 -7 -9 -9 -9 -10 -10 -10 -10 -10 -10 -10 -10 -9 -9 -9 -8 -8 -9 -12 -9 -9 -7 -7 -7 -7 -7 -8 -8 -8 -10 -9 -9 -8 -8 -10 -12 -12 -10 -9 -9
-6 -2 -1 -2 -2 -1 -0 0 0 0 0 1 1 1 2 3 0 -1 -2 -3 -4 -5 -6 -7 -8 -8 -9 -10 -10 -10 -10 -10 -10 -10 -10 -9 -9 -9 -9 -10 -10 -9 -9 -9 -9 -9 -9 -8 -7 -9 -8 -8 -9 -11 -11 -9 -10 -11 -10 -9 -11 -11 -11
-7 -7 -4 -2 -2 -1 -1 -1 -0 -0 -0 0 1 1 1 -4 -4 -4 -5 -7 -8 -9 -7 -7 -7 -8 -8 -9 -10 -10 -10 -10 -10 -10 -10 -10 -10 -9 -9 -10 -10 -9 -10 -10 -9 -9 -8 -7 -9 -9 -9 -13 -11 -11 -8 -9 -9 -10 -11 -9 -9 -11 -9
MSLP
1022.88 1022.80 1022.68 1022.56 1022.48 1022.48 1022.48 1022.40 1022.28 1022.12 1021.96 1021.76 1021.56 1021.40 1021.16 1020.96 1020.84 1020.68 1020.60 1020.44 1020.28 1020.12 1020.00 1019.92 1019.80 1019.60 1019.40 1019.16 1018.96 1018.60 1018.36 1018.08 1017.80 1017.52 1017.32 1017.12 1017.04 1016.92 1016.76 1016.72 1016.56 1016.24 1015.72 1015.28 1015.16 1015.16 1015.12 1015.12 1015.08 1014.92 1014.80 1014.72 1014.76 1014.80 1014.76 1014.72 1014.76 1014.76 1014.80 1014.80 1014.84 1014.84 1014.80
1022.96 1022.88 1022.80 1022.72 1022.68 1022.68 1022.68 1022.60 1022.48 1022.32 1022.16 1022.04 1021.84 1021.56 1021.32 1021.16 1021.04 1020.92 1020.80 1020.68 1020.56 1020.44 1020.24 1020.12 1019.88 1019.72 1019.56 1019.36 1019.24 1018.88 1018.68 1018.44 1018.24 1017.96 1017.72 1017.52 1017.32 1017.20 1017.08 1016.92 1016.88 1016.52 1016.20 1015.92 1015.44 1015.40 1015.24 1015.28 1015.20 1015.04 1014.96 1014.92 1014.84 1014.84 1014.84 1014.76 1014.76 1014.80 1014.84 1014.84 1014.88 1014.92 1014.88
1023.04 1022.92 1022.88 1022.88 1022.92 1022.92 1022.88 1022.72 1022.60 1022.48 1022.36 1022.24 1022.12 1021.88 1021.56 1021.36 1021.28 1021.12 1021.00 1020.88 1020.80 1020.64 1020.52 1020.36 1020.20 1020.00 1019.72 1019.44 1019.24 1019.00 1018.88 1018.72 1018.56 1018.28 1018.08 1017.88 1017.60 1017.52 1017.40 1017.32 1017.20 1017.04 1016.64 1016.16 1015.96 1015.56 1015.60 1015.48 1015.40 1015.24 1015.24 1015.16 1015.12 1015.00 1014.92 1014.84 1014.80 1014.80 1014.80 1014.84 1014.84 1014.88 1014.88
1023.08 1023.00 1023.00 1023.04 1023.04 1023.04 1022.96 1022.80 1022.64 1022.52 1022.44 1022.40 1022.28 1022.12 1021.88 1021.60 1021.44 1021.28 1021.12 1021.04 1020.88 1020.72 1020.68 1020.60 1020.44 1020.24 1020.00 1019.72 1019.40 1019.04 1018.88 1018.76 1018.72 1018.52 1018.36 1018.12 1017.88 1017.72 1017.64 1017.56 1017.48 1017.40 1017.24 1016.80 1016.64 1015.96 1015.96 1016.00 1015.84 1015.48 1015.48 1015.36 1015.24 1015.16 1015.04 1015.00 1014.88 1014.84 1014.84 1014.84 1014.84 1014.84 1014.84
1023.16 1023.08 1023.08 1023.08 1023.08 1023.00 1022.92 1022.84 1022.72 1022.56 1022.44 1022.32 1022.32 1022.24 1022.08 1021.88 1021.64 1021.40 1021.24 1021.08 1020.92 1020.80 1020.76 1020.64 1020.52 1020.40 1020.20 1019.96 1019.68 1019.36 1019.12 1018.88 1018.84 1018.64 1018.52 1018.40 1018.16 1017.96 1017.76 1017.64 1017.52 1017.48 1017.40 1017.36 1017.08 1016.64 1016.24 1016.12 1016.04 1015.76 1015.64 1015.56 1015.44 1015.36 1015.24 1015.12 1015.04 1014.88 1014.80 1014.68 1014.60 1014.64 1014.68
1023.28 1023.28 1023.24 1023.20 1023.08 1022.96 1022.84 1022.76 1022.68 1022.60 1022.44 1022.32 1022.24 1022.20 1022.12 1021.96 1021.76 1021.52 1021.36 1021.16 1021.00 1020.88 1020.76 1020.64 1020.52 1020.36 1020.20 1020.00 1019.76 1019.68 1019.48 1019.24 1019.04 1018.80 1018.64 1018.48 1018.32 1018.12 1017.88 1017.72 1017.56 1017.40 1017.36 1017.28 1017.12 1016.92 1016.64 1016.32 1016.20 1015.88 1015.72 1015.56 1015.64 1015.64 1015.48 1015.24 1015.08 1014.96 1014.84 1014.72 1014.56 1014.48 1014.44
1023.36 1023.32 1023.32 1023.24 1023.08 1022.92 1022.80 1022.68 1022.60 1022.52 1022.40 1022.28 1022.20 1022.12 1022.04 1021.92 1021.72 1021.56 1021.40 1021.24 1021.08 1020.88 1020.76 1020.64 1020.48 1020.32 1020.16 1020.00 1019.80 1019.72 1019.60 1019.40 1019.24 1018.92 1018.84 1018.56 1018.44 1018.24 1018.08 1017.92 1017.68 1017.44 1017.32 1017.16 1016.96 1016.76 1016.60 1016.44 1016.20 1016.12 1015.88 1015.52 1015.60 1015.64 1015.60 1015.56 1015.24 1014.96 1014.84 1014.88 1014.88 1014.64 1014.60
1023.28 1023.24 1023.28 1023.16 1023.08 1022.92 1022.80 1022.68 1022.52 1022.44 1022.36 1022.28 1022.16 1022.04 1021.92 1021.80 1021.60 1021.44 1021.32 1021.20 1021.08 1020.92 1020.76 1020.60 1020.44 1020.28 1020.12 1019.96 1019.84 1019.68 1019.56 1019.40 1019.32 1019.08 1018.92 1018.72 1018.60 1018.44 1018.24 1018.04 1017.80 1017.64 1017.40 1017.20 1016.96 1016.76 1016.56 1016.40 1016.24 1016.08 1015.96 1015.76 1015.64 1015.40 1015.32 1015.48 1015.48 1015.28 1015.08 1015.08 1015.12 1015.08 1014.96
1023.24 1023.20 1023.04 1022.96 1022.92 1022.84 1022.76 1022.64 1022.48 1022.36 1022.28 1022.16 1022.00 1021.88 1021.76 1021.52 1021.36 1021.28 1021.24 1021.16 1021.00 1020.88 1020.76 1020.60 1020.40 1020.20 1020.04 1019.84 1019.68 1019.56 1019.48 1019.36 1019.28 1019.24 1019.20 1018.96 1018.76 1018.56 1018.36 1018.12 1017.96 1017.76 1017.56 1017.36 1017.12 1016.84 1016.52 1016.44 1016.36 1016.24 1016.12 1016.00 1015.76 1015.76 1015.80 1015.88 1015.76 1015.48 1015.64 1015.52 1015.24 1015.20 1015.56
1023.16 1023.12 1023.04 1022.96 1022.84 1022.76 1022.68 1022.56 1022.40 1022.24 1022.08 1021.84 1021.68 1021.44 1021.24 1021.16 1021.12 1021.08 1021.08 1021.04 1020.92 1020.72 1020.64 1020.52 1020.32 1020.12 1019.88 1019.76 1019.64 1019.56 1019.52 1019.40 1019.32 1019.20 1019.12 1019.00 1018.88 1018.76 1018.56 1018.40 1018.20 1017.96 1017.68 1017.48 1017.28 1017.00 1016.76 1016.68 1016.52 1016.32 1016.28 1016.20 1016.16 1016.24 1016.12 1015.96 1015.80 1015.68 1015.68 1015.60 1015.28 1015.40 1015.96
1023.12 1022.96 1022.92 1022.88 1022.84 1022.72 1022.56 1022.40 1022.24 1022.08 1021.76 1021.28 1020.96 1020.88 1020.88 1020.80 1020.76 1020.72 1020.76 1020.76 1020.76 1020.68 1020.52 1020.36 1020.20 1020.00 1019.84 1019.72 1019.68 1019.60 1019.52 1019.40 1019.28 1019.20 1019.04 1018.92 1018.84 1018.80 1018.80 1018.68 1018.44 1018.16 1017.88 1017.64 1017.36 1017.08 1017.00 1016.92 1016.76 1016.52 1016.36 1016.40 1016.20 1016.24 1016.16 1016.08 1016.08 1015.96 1015.80 1015.72 1015.60 1015.40 1015.68
1022.92 1022.88 1022.80 1022.72 1022.68 1022.56 1022.40 1022.24 1021.96 1021.76 1021.40 1021.08 1020.76 1020.60 1020.52 1020.52 1020.48 1020.44 1020.40 1020.44 1020.48 1020.48 1020.44 1020.28 1020.16 1019.96 1019.80 1019.72 1019.60 1019.48 1019.40 1019.32 1019.28 1019.24 1019.12 1019.00 1018.88 1018.76 1018.64 1018.60 1018.52 1018.28 1018.00 1017.72 1017.48 1017.24 1017.04 1016.88 1016.84 1016.60 1016.48 1016.36 1016.24 1016.16 1016.16 1016.12 1016.12 1016.04 1015.92 1015.92 1015.96 1015.88 1015.80
1022.76 1022.64 1022.56 1022.48 1022.32 1022.16 1022.08 1021.96 1021.72 1021.60 1021.20 1020.88 1020.56 1020.32 1020.24 1020.24 1020.24 1020.20 1020.16 1020.16 1020.16 1020.20 1020.28 1020.32 1020.24 1020.08 1019.84 1019.64 1019.44 1019.32 1019.28 1019.28 1019.24 1019.20 1019.16 1019.04 1018.88 1018.72 1018.64 1018.60 1018.48 1018.44 1018.40 1018.28 1018.24 1017.80 1017.44 1017.16 1017.12 1016.92 1016.64 1016.76 1016.76 1016.48 1016.28 1016.08 1016.12 1016.08 1016.12 1016.12 1016.08 1016.04 1015.96
1022.52 1022.40 1022.28 1022.12 1022.04 1021.88 1021.80 1021.72 1021.48 1021.28 1020.96 1020.64 1020.36 1020.16 1019.96 1020.00 1020.04 1020.08 1020.04 1020.04 1020.04 1020.12 1020.16 1020.20 1020.20 1020.12 1019.88 1019.60 1019.48 1019.32 1019.24 1019.20 1019.16 1019.12 1019.08 1019.00 1018.88 1018.76 1018.64 1018.56 1018.48 1018.44 1018.40 1018.40 1018.40 1018.28 1018.12 1017.68 1017.72 1017.56 1017.20 1017.04 1016.96 1016.92 1016.60 1016.32 1016.20 1016.24 1016.28 1016.24 1016.24 1016.04 1016.20
1022.16 1022.04 1021.92 1021.84 1021.76 1021.64 1021.52 1021.40 1021.24 1021.04 1020.80 1020.48 1020.20 1019.92 1019.84 1019.92 1020.00 1020.04 1020.08 1020.12 1020.12 1020.16 1020.12 1020.12 1020.08 1020.00 1019.84 1019.56 1019.32 1019.24 1019.12 1019.04 1019.00 1019.00 1018.96 1018.88 1018.72 1018.64 1018.52 1018.48 1018.44 1018.40 1018.40 1018.32 1018.28 1018.24 1018.04 1017.80 1017.60 1017.48 1017.32 1017.16 1016.96 1016.84 1016.64 1016.48 1016.40 1016.32 1016.28 1016.20 1016.20 1016.24 1016.20
1022.16 1021.92 1021.72 1021.60 1021.52 1021.44 1021.24 1021.16 1021.04 1020.84 1020.64 1020.40 1020.12 1019.88 1019.80 1019.88 1019.96 1020.00 1020.00 1020.00 1020.00 1020.00 1020.00 1020.00 1019.92 1019.80 1019.64 1019.44 1019.24 1018.96 1018.88 1018.76 1018.76 1018.76 1018.76 1018.72 1018.68 1018.64 1018.52 1018.40 1018.32 1018.24 1018.12 1018.08 1017.96 1017.84 1017.68 1017.52 1017.32 1017.04 1016.92 1016.76 1016.56 1016.40 1016.32 1016.24 1016.12 1016.16 1016.20 1016.16 1016.12 1015.92 1015.72
1022.00 1021.88 1021.72 1021.52 1021.44 1021.32 1021.00 1020.88 1020.80 1020.68 1020.48 1020.32 1020.04 1019.80 1019.84 1019.84 1019.88 1019.92 1019.92 1019.88 1019.84 1019.84 1019.80 1019.76 1019.68 1019.60 1019.44 1019.24 1019.04 1018.76 1018.64 1018.56 1018.48 1018.52 1018.52 1018.52 1018.48 1018.44 1018.44 1018.28 1018.28 1018.28 1018.16 1017.92 1017.72 1017.52 1017.36 1017.24 1017.12 1017.00 1016.80 1016.60 1016.52 1016.72 1016.76 1016.56 1016.24 1016.24 1015.96 1016.04 1015.96 1015.72 1015.72
1022.00 1021.84 1021.72 1021.56 1021.32 1021.20 1020.96 1020.60 1020.52 1020.44 1020.28 1020.20 1019.92 1019.80 1019.72 1019.68 1019.72 1019.72 1019.76 1019.64 1019.64 1019.60 1019.52 1019.40 1019.20 1019.08 1019.00 1018.92 1018.72 1018.56 1018.44 1018.28 1018.24 1018.28 1018.28 1018.32 1018.32 1018.24 1018.24 1018.08 1018.16 1018.28 1018.24 1018.16 1018.00 1017.92 1017.80 1017.64 1017.48 1017.24 1017.08 1017.00 1016.88 1016.92 1016.96 1017.08 1017.00 1016.68 1016.52 1016.24 1015.88 1015.88 1015.72
1022.04 1021.76 1021.60 1021.40 1021.20 1020.96 1020.80 1020.48 1020.32 1020.28 1020.16 1020.00 1019.84 1019.72 1019.64 1019.60 1019.60 1019.56 1019.56 1019.52 1019.32 1019.24 1019.20 1019.08 1018.92 1018.76 1018.60 1018.52 1018.40 1018.20 1018.04 1017.88 1017.84 1017.92 1018.00 1018.04 1018.04 1018.00 1018.00 1017.84 1017.96 1017.96 1017.96 1017.96 1017.96 1017.92 1017.88 1017.76 1017.56 1017.44 1017.36 1017.24 1017.16 1017.12 1017.20 1017.32 1017.32 1017.20 1017.28 1017.04 1016.60 1016.16 1015.92
1021.92 1021.56 1021.28 1021.12 1021.00 1020.84 1020.68 1020.52 1020.36 1020.24 1020.12 1019.96 1019.76 1019.68 1019.56 1019.48 1019.48 1019.40 1019.32 1019.28 1019.16 1019.00 1018.84 1018.76 1018.68 1018.52 1018.36 1018.20 1018.08 1017.92 1017.68 1017.52 1017.40 1017.44 1017.52 1017.64 1017.64 1017.60 1017.52 1017.44 1017.68 1017.72 1017.80 1017.76 1017.76 1017.72 1017.72 1017.68 1017.60 1017.52 1017.40 1017.28 1017.24 1017.20 1017.20 1017.24 1017.32 1017.36 1017.32 1017.24 1017.08 1016.80 1016.44
1021.68 1021.32 1021.00 1020.84 1020.76 1020.68 1020.52 1020.40 1020.20 1020.04 1019.92 1019.76 1019.64 1019.52 1019.44 1019.36 1019.32 1019.20 1019.16 1019.00 1018.92 1018.84 1018.72 1018.56 1018.32 1018.24 1018.12 1017.96 1017.84 1017.68 1017.48 1017.24 1017.04 1017.00 1017.00 1017.00 1017.08 1017.04 1016.96 1017.08 1017.24 1017.32 1017.36 1017.44 1017.44 1017.44 1017.40 1017.40 1017.40 1017.32 1017.36 1017.32 1017.24 1017.16 1017.16 1017.16 1017.24 1017.32 1017.28 1017.24 1017.16 1017.12 1016.88
1021.52 1021.20 1020.88 1020.64 1020.56 1020.48 1020.28 1020.12 1019.96 1019.84 1019.72 1019.56 1019.40 1019.28 1019.08 1019.04 1018.92 1018.80 1018.76 1018.76 1018.64 1018.56 1018.48 1018.28 1018.16 1018.04 1017.92 1017.80 1017.64 1017.48 1017.32 1017.12 1017.00 1016.88 1016.88 1016.80 1016.64 1016.52 1016.48 1016.60 1016.72 1016.88 1017.08 1017.24 1017.28 1017.36 1017.36 1017.28 1017.24 1017.20 1017.20 1017.16 1017.12 1017.08 1017.08 1017.04 1017.04 1017.08 1017.12 1017.16 1017.08 1017.00 1016.96
1021.32 1021.04 1020.76 1020.56 1020.44 1020.32 1020.12 1019.96 1019.84 1019.64 1019.56 1019.40 1019.20 1019.00 1018.76 1018.56 1018.36 1018.20 1018.16 1018.20 1018.12 1017.96 1017.80 1017.68 1017.76 1017.76 1017.64 1017.52 1017.40 1017.28 1017.12 1017.00 1016.96 1016.88 1016.88 1016.72 1016.60 1016.52 1016.48 1016.52 1016.60 1016.76 1016.92 1017.04 1017.12 1017.16 1017.20 1017.16 1017.16 1017.20 1017.16 1017.08 1017.08 1017.00 1017.00 1016.96 1016.96 1016.92 1016.96 1016.92 1016.84 1016.80 1016.72
1021.00 1020.92 1020.72 1020.48 1020.24 1020.08 1019.96 1019.76 1019.64 1019.48 1019.32 1019.16 1019.00 1018.76 1018.48 1018.20 1017.92 1017.72 1017.64 1017.60 1017.56 1017.44 1017.36 1017.32 1017.36 1017.44 1017.36 1017.24 1017.16 1017.04 1016.96 1016.88 1016.76 1016.68 1016.60 1016.52 1016.48 1016.48 1016.44 1016.52 1016.72 1016.84 1016.96 1017.04 1017.12 1017.16 1017.04 1016.96 1016.88 1017.00 1017.04 1017.04 1016.96 1016.84 1016.80 1016.76 1016.76 1016.72 1016.76 1016.80 1016.72 1016.60 1016.44
1021.04 1020.80 1020.52 1020.20 1019.92 1019.76 1019.64 1019.56 1019.48 1019.36 1019.20 1019.00 1018.80 1018.56 1018.28 1017.96 1017.68 1017.40 1017.20 1017.08 1016.96 1017.00 1016.96 1016.96 1016.96 1016.92 1016.92 1016.92 1016.88 1016.84 1016.80 1016.72 1016.68 1016.60 1016.56 1016.56 1016.60 1016.68 1016.76 1016.76 1016.80 1016.92 1017.00 1017.12 1017.08 1017.00 1016.88 1016.80 1016.76 1016.80 1016.80 1016.76 1016.76 1016.72 1016.72 1016.68 1016.56 1016.48 1016.48 1016.44 1016.44 1016.36 1016.28
1020.76 1020.44 1020.20 1019.96 1019.68 1019.52 1019.44 1019.36 1019.28 1019.12 1019.00 1018.84 1018.64 1018.36 1018.04 1017.72 1017.48 1017.20 1016.92 1016.68 1016.60 1016.56 1016.56 1016.60 1016.52 1016.44 1016.52 1016.60 1016.64 1016.72 1016.72 1016.76 1016.68 1016.64 1016.60 1016.56 1016.60 1016.72 1016.80 1016.92 1017.00 1017.04 1017.08 1017.00 1016.92 1016.84 1016.68 1016.56 1016.60 1016.60 1016.52 1016.52 1016.56 1016.56 1016.52 1016.48 1016.36 1016.20 1016.12 1016.04 1015.92 1015.84 1015.80
1020.56 1020.32 1020.12 1019.80 1019.56 1019.36 1019.24 1019.20 1019.04 1018.84 1018.68 1018.56 1018.40 1018.16 1017.92 1017.64 1017.36 1017.12 1016.92 1016.60 1016.44 1016.40 1016.40 1016.36 1016.36 1016.36 1016.36 1016.40 1016.44 1016.48 1016.44 1016.44 1016.40 1016.44 1016.44 1016.44 1016.52 1016.56 1016.64 1016.72 1016.80 1016.84 1016.80 1016.72 1016.64 1016.52 1016.44 1016.36 1016.36 1016.40 1016.44 1016.40 1016.32 1016.28 1016.20 1016.24 1016.20 1016.12 1015.96 1015.80 1015.72 1015.76 1015.64
1020.44 1020.20 1020.00 1019.68 1019.36 1019.16 1018.88 1018.68 1018.56 1018.40 1018.32 1018.16 1018.00 1017.80 1017.60 1017.40 1017.28 1017.12 1017.08 1016.96 1016.68 1016.60 1016.60 1016.56 1016.44 1016.44 1016.44 1016.48 1016.52 1016.52 1016.56 1016.52 1016.48 1016.48 1016.44 1016.40 1016.44 1016.48 1016.56 1016.56 1016.44 1016.40 1016.40 1016.32 1016.28 1016.20 1016.16 1016.12 1016.12 1016.12 1016.08 1016.12 1016.12 1016.08 1016.00 1015.96 1016.00 1015.92 1015.72 1015.60 1015.52 1015.48 1015.40
1020.00 1019.72 1019.56 1019.36 1019.08 1018.96 1018.52 1018.12 1018.04 1017.76 1017.72 1017.60 1017.40 1017.20 1017.08 1017.00 1016.84 1016.72 1016.72 1016.68 1016.68 1016.64 1016.60 1016.64 1016.56 1016.48 1016.40 1016.44 1016.40 1016.40 1016.44 1016.44 1016.48 1016.44 1016.44 1016.48 1016.44 1016.48 1016.52 1016.56 1016.60 1016.52 1016.36 1016.24 1016.20 1016.08 1015.96 1015.84 1015.88 1015.84 1015.84 1015.84 1015.84 1015.80 1015.76 1015.72 1015.80 1015.72 1015.72 1015.60 1015.64 1015.60 1015.52
1019.32 1019.12 1019.08 1018.88 1018.56 1018.48 1018.24 1017.76 1017.44 1017.24 1017.04 1016.88 1016.76 1016.60 1016.48 1016.32 1016.24 1016.20 1016.20 1016.28 1016.28 1016.24 1016.28 1016.16 1016.08 1016.08 1016.08 1016.12 1016.24 1016.32 1016.32 1016.28 1016.36 1016.36 1016.28 1016.24 1016.24 1016.20 1016.20 1016.20 1016.20 1016.12 1016.00 1015.96 1015.88 1015.76 1015.72 1015.60 1015.60 1015.56 1015.52 1015.56 1015.52 1015.48 1015.52 1015.52 1015.52 1015.40 1015.40 1015.48 1015.40 1015.44 1015.44
1018.88 1018.68 1018.48 1018.32 1017.96 1017.68 1017.48 1017.12 1016.88 1016.80 1016.68 1016.52 1016.36 1016.16 1016.00 1015.92 1015.88 1015.88 1015.84 1015.72 1015.76 1015.76 1015.76 1015.72 1015.72 1015.76 1015.92 1015.96 1016.08 1016.12 1015.96 1015.92 1016.00 1016.00 1016.00 1015.92 1015.92 1015.96 1015.88 1015.76 1015.68 1015.60 1015.60 1015.60 1015.52 1015.40 1015.36 1015.28 1015.24 1015.16 1015.12 1015.12 1015.08 1015.12 1015.08 1015.24 1015.28 1015.32 1015.32 1015.36 1015.32 1015.32 1015.28
1018.44 1018.24 1018.00 1017.80 1017.56 1017.28 1017.04 1016.88 1016.68 1016.48 1016.32 1016.16 1015.96 1015.80 1015.60 1015.48 1015.48 1015.56 1015.56 1015.56 1015.52 1015.36 1015.04 1015.16 1015.28 1015.32 1015.44 1015.64 1015.80 1015.68 1015.68 1015.72 1015.72 1015.68 1015.68 1015.60 1015.56 1015.44 1015.44 1015.44 1015.28 1015.12 1015.20 1015.12 1015.12 1015.04 1014.96 1014.96 1014.92 1014.88 1014.80 1014.76 1014.76 1014.76 1014.84 1014.88 1014.92 1015.04 1015.08 1015.12 1015.24 1015.20 1015.08
1018.04 1017.84 1017.60 1017.40 1017.16 1016.92 1016.68 1016.44 1016.28 1016.08 1015.88 1015.76 1015.60 1015.44 1015.24 1015.08 1015.00 1015.08 1015.12 1015.24 1015.28 1015.12 1014.84 1014.80 1014.88 1014.96 1015.04 1015.24 1015.24 1015.24 1015.32 1015.32 1015.32 1015.28 1015.24 1015.28 1015.16 1015.00 1014.88 1014.88 1014.76 1014.80 1014.80 1014.72 1014.68 1014.64 1014.56 1014.48 1014.48 1014.48 1014.48 1014.44 1014.48 1014.52 1014.52 1014.52 1014.56 1014.60 1014.72 1014.76 1014.76 1014.80 1014.84
1017.52 1017.40 1017.24 1017.04 1016.84 1016.64 1016.40 1016.16 1015.96 1015.84 1015.64 1015.44 1015.28 1015.12 1014.96 1014.80 1014.60 1014.52 1014.52 1014.72 1014.76 1014.76 1014.64 1014.64 1014.72 1014.72 1014.76 1014.80 1014.92 1014.92 1014.96 1014.92 1014.88 1014.92 1014.88 1014.80 1014.72 1014.60 1014.52 1014.48 1014.52 1014.60 1014.48 1014.40 1014.32 1014.24 1014.16 1014.12 1014.12 1014.12 1014.12 1014.16 1014.20 1014.24 1014.24 1014.24 1014.24 1014.32 1014.40 1014.52 1014.56 1014.52 1014.56
1017.08 1016.96 1016.92 1016.72 1016.52 1016.36 1016.12 1015.92 1015.68 1015.48 1015.28 1015.12 1014.92 1014.76 1014.60 1014.52 1014.36 1014.20 1014.12 1014.24 1014.24 1014.28 1014.24 1014.24 1014.24 1014.28 1014.28 1014.40 1014.40 1014.40 1014.48 1014.44 1014.44 1014.48 1014.48 1014.36 1014.24 1014.20 1014.16 1014.16 1014.16 1014.12 1014.08 1014.04 1014.00 1013.96 1013.88 1013.80 1013.76 1013.80 1013.84 1013.80 1013.80 1013.88 1014.04 1014.08 1014.12 1014.16 1014.20 1014.20 1014.28 1014.44 1014.44
1016.68 1016.64 1016.32 1016.24 1016.04 1015.92 1015.72 1015.48 1015.24 1015.04 1014.84 1014.68 1014.48 1014.36 1014.32 1014.28 1014.00 1013.88 1013.80 1013.92 1014.00 1014.08 1013.88 1013.88 1013.84 1013.88 1013.80 1013.88 1013.96 1014.00 1014.04 1014.00 1014.04 1014.00 1014.00 1013.96 1013.92 1013.80 1013.72 1013.72 1013.72 1013.68 1013.64 1013.60 1013.60 1013.48 1013.44 1013.40 1013.44 1013.44 1013.48 1013.56 1013.56 1013.56 1013.60 1013.68 1013.76 1013.88 1014.00 1014.08 1014.12 1014.20 1014.20
Wind_Speed
4 4 5 5 5 5 5 5 6 5 5 5 6 6 5 5 5 5 5 4 5 5 5 6 5 6 5 6 6 5 5 5 5 4 3 2 2 2 3 3 4 6 6 3 2 2 3 2 2 1 2 2 2 2 2 2 2 2 2 3 3 3 8
3 3 4 4 5 5 5 4 4 5 5 5 6 6 5 6 6 5 5 4 5 5 5 4 4 5 4 5 5 5 5 4 4 5 4 4 3 2 2 3 2 3 3 4 2 2 2 1 1 2 1 1 3 2 1 1 2 1 1 2 2 3 3
3 4 4 4 4 4 4 4 4 4 4 4 4 5 5 5 5 4 5 5 5 5 5 5 4 5 4 4 4 4 4 4 4 4 4 4 4 3 3 3 2 2 2 3 2 1 3 3 2 1 3 4 2 2 2 3 2 1 1 1 2 3 2
4 3 3 3 3 3 4 4 4 4 3 3 3 4 5 5 5 4 4 4 4 5 5 5 6 6 5 5 4 4 3 3 3 4 4 4 3 3 3 3 2 2 2 2 2 1 2 2 4 2 1 2 2 3 3 2 2 2 2 1 2 3 3
3 3 3 3 3 3 4 3 4 4 4 3 3 3 4 4 4 4 5 4 4 4 4 4 4 5 5 5 5 5 4 4 4 3 4 4 4 3 3 3 3 3 1 3 4 4 1 1 2 1 2 2 3 3 2 2 2 3 4 4 2 1 2
4 3 4 4 4 3 4 3 3 4 4 4 4 4 4 4 4 4 5 5 5 4 4 4 4 4 3 4 4 4 5 5 5 4 3 4 4 4 4 4 4 3 3 4 4 4 4 2 2 2 2 1 2 4 5 4 3 2 3 3 4 4 3
4 4 3 4 4 4 4 4 4 4 4 4 4 4 4 4 4 4 4 4 5 5 4 4 5 4 4 3 3 3 4 5 5 4 4 4 4 5 5 5 4 4 4 4 4 4 4 4 3 3 5 3 2 2 2 4 5 5 1 2 1 3 3
4 4 3 4 4 5 4 4 4 4 4 4 4 4 4 4 4 5 5 5 5 5 5 5 5 4 4 3 3 3 3 3 4 5 4 5 4 5 5 5 4 5 5 4 4 3 4 2 3 2 3 3 3 3 1 1 0 2 3 3 2 0 2
4 4 5 5 4 4 4 4 5 4 4 5 6 4 5 6 6 5 5 5 6 5 5 5 5 5 4 3 4 6 5 5 6 4 5 5 5 5 5 4 4 4 5 5 4 5 2 2 2 2 2 2 2 1 2 1 1 0 1 1 3 2 4
4 4 4 5 6 5 4 4 4 5 7 8 6 6 6 5 4 4 4 6 7 7 5 5 5 5 7 6 5 4 6 7 8 8 6 5 3 5 5 4 5 4 4 4 5 4 3 3 3 2 1 1 0 0 2 2 2 1 1 1 1 1 4
5 5 4 4 5 5 6 5 5 7 11 14 15 9 5 5 6 5 5 5 6 7 7 5 4 5 6 6 5 4 6 6 7 8 10 9 8 7 5 5 5 5 5 5 4 4 3 3 4 2 2 1 2 0 0 0 0 0 2 1 1 1 0
5 5 5 5 4 4 6 5 7 11 13 15 16 13 7 5 5 6 6 5 5 5 5 7 6 5 4 4 5 5 4 3 5 7 8 9 8 9 8 7 6 6 5 4 4 5 4 4 4 3 1 3 1 3 0 1 1 1 1 0 0 1 1
5 6 6 5 6 6 6 6 7 10 14 15 16 16 13 6 6 6 6 6 6 5 6 6 7 7 6 6 9 7 4 3 3 6 8 10 9 8 8 9 8 8 5 4 4 4 5 3 4 3 2 4 4 2 2 1 1 1 1 1 1 2 1
7 6 6 6 6 7 6 6 7 10 14 16 17 18 15 6 6 6 6 6 7 6 6 6 6 7 7 7 5 5 5 4 4 5 5 5 5 5 5 6 7 7 6 5 2 4 4 5 4 4 4 5 4 4 3 3 3 1 1 1 2 1 1
7 7 6 6 6 6 7 7 8 11 14 16 18 19 15 7 6 5 5 6 5 6 6 6 7 6 7 8 7 5 5 5 5 4 5 4 5 5 5 5 4 4 3 3 3 3 5 6 5 5 5 6 5 5 5 3 3 3 3 3 2 1 3
5 7 8 7 7 7 9 7 8 12 13 16 18 20 11 6 6 6 6 6 6 6 6 5 6 6 7 7 7 9 9 6 4 4 5 5 5 5 5 5 4 6 7 6 6 5 6 6 7 9 6 6 7 6 4 4 4 3 2 4 5 6 1
7 6 7 8 7 8 9 7 6 10 13 14 18 16 9 7 7 6 7 7 6 6 6 6 6 6 7 7 7 9 9 9 7 5 5 6 6 5 5 7 5 5 8 12 13 13 13 14 15 15 15 14 12 8 5 3 3 3 3 4 6 6 3
8 7 6 7 9 7 9 9 8 11 12 14 18 16 11 8 7 7 6 7 6 6 6 6 10 10 7 7 8 8 10 10 7 6 6 6 6 9 7 8 3 2 3 5 7 9 11 13 13 13 12 10 10 9 6 4 1 4 4 5 6 7 5
8 8 6 6 7 10 11 10 9 10 13 16 18 16 9 9 7 7 6 7 8 6 6 6 7 10 9 8 8 9 11 12 8 6 6 7 6 8 8 8 3 4 4 4 4 4 4 6 6 5 4 4 6 7 5 1 1 3 2 4 4 5 5
7 9 8 7 7 8 8 9 9 7 10 14 17 19 12 8 8 8 9 8 8 8 7 6 6 7 9 11 11 11 13 12 11 8 6 6 6 7 10 4 3 3 3 5 5 5 4 4 5 5 4 5 5 4 3 2 1 2 4 5 5 4 5
9 9 9 7 6 7 7 7 9 9 11 13 15 17 15 8 8 8 8 8 8 7 7 7 7 5 7 9 9 10 10 12 13 12 8 6 6 7 7 6 3 4 7 5 5 5 5 6 4 5 3 3 4 4 4 4 3 3 4 5 5 6 7
8 8 8 7 6 6 8 8 11 9 10 13 15 17 18 10 8 8 8 8 7 6 7 7 7 6 7 9 10 10 11 13 12 12 8 7 12 14 14 9 4 3 2 4 3 5 5 6 6 6 4 4 4 4 6 5 5 4 4 5 6 6 7
7 8 8 7 6 6 7 8 9 11 10 12 14 15 16 17 13 10 9 7 8 8 8 6 6 6 8 12 10 10 10 10 11 8 6 12 14 13 11 8 3 3 3 3 4 4 5 5 5 5 5 5 5 5 5 5 4 5 4 4 6 6 7
6 6 8 8 8 6 6 7 7 8 10 11 13 14 16 16 17 15 9 7 7 7 7 7 6 5 9 11 11 11 11 11 11 9 11 12 12 12 11 5 4 3 3 4 5 6 7 7 5 5 4 4 5 5 5 6 4 5 5 5 6 7 8
6 7 7 8 8 7 6 6 7 7 8 10 11 13 14 16 16 15 15 9 7 8 7 7 9 10 11 11 11 12 11 9 10 13 12 10 7 6 3 3 2 3 3 5 7 7 7 7 6 4 4 4 4 4 4 4 4 4 5 5 5 6 5
7 7 7 8 8 7 7 6 6 7 6 6 7 7 10 14 14 13 14 12 8 9 9 10 10 11 11 11 9 7 5 4 5 9 10 10 9 3 3 3 4 4 4 7 7 8 8 7 5 5 6 5 4 5 6 5 4 4 6 3 4 3 5
7 7 8 9 8 8 7 7 7 7 6 6 7 7 7 7 8 9 8 8 6 5 6 7 6 5 6 5 8 9 8 8 9 8 7 6 5 5 6 5 4 5 6 7 7 8 7 6 6 4 3 4 5 6 6 4 5 4 6 4 3 2 4
8 8 8 9 8 8 8 7 7 7 6 7 7 7 7 6 5 5 5 6 6 5 4 3 5 5 2 2 3 4 3 4 4 5 6 6 4 5 5 5 7 8 6 7 7 7 6 6 4 5 6 5 4 6 5 4 4 4 5 3 1 0 3
9 9 7 8 8 8 10 9 8 7 6 9 10 10 7 6 6 5 5 6 7 6 3 1 3 3 5 4 5 5 6 6 6 6 6 5 5 5 5 5 3 6 7 7 6 7 7 8 6 7 5 6 5 5 6 4 3 4 3 2 1 3 4
11 10 8 9 9 8 10 10 9 13 17 16 16 17 18 15 14 12 8 7 10 7 5 5 4 5 5 6 5 6 6 6 6 6 6 6 5 6 6 6 6 6 7 6 7 7 7 7 6 6 6 5 6 5 5 5 5 4 3 3 4 6 6
20 21 20 14 11 10 16 17 17 15 15 16 17 17 17 17 15 15 16 15 9 6 7 6 7 6 6 6 6 6 8 7 6 6 6 7 6 6 6 7 6 7 7 7 7 7 7 7 6 7 6 6 6 6 6 4 4 4 4 5 6 6 6
18 19 19 19 17 13 10 11 14 16 15 15 16 17 17 16 15 15 14 13 13 9 8 6 7 7 7 6 6 8 7 6 7 6 7 6 6 7 6 6 8 7 6 6 6 7 7 7 7 7 7 6 6 7 6 5 5 4 5 5 5 6 6
17 18 18 19 19 20 17 16 15 16 18 19 18 18 17 16 17 16 14 13 8 7 8 7 6 7 7 6 7 7 7 7 7 7 7 7 7 8 7 7 7 6 7 7 7 7 7 7 7 7 8 7 7 6 6 6 6 6 5 4 5 4 6
14 14 15 16 17 18 18 17 18 18 19 19 18 17 16 15 12 15 17 13 8 7 8 7 7 7 7 7 7 7 7 7 7 6 7 7 7 7 7 7 5 5 7 6 7 7 7 7 7 7 6 6 6 6 6 6 6 5 5 5 5 6 6
8 9 10 10 9 11 16 17 17 17 17 17 16 15 14 14 10 9 8 7 7 8 8 8 8 8 8 7 7 7 7 8 7 6 7 7 7 7 6 6 6 7 6 7 7 7 7 7 7 7 7 6 6 5 5 6 6 6 6 6 5 5 5
9 9 9 14 15 16 17 18 18 17 17 16 16 15 13 9 8 8 8 7 7 7 9 8 8 7 8 7 7 7 7 7 7 7 7 7 7 8 7 7 6 7 7 6 7 7 7 7 7 7 7 6 6 6 7 6 6 6 5 5 6 4 5
Wind_Direction
9 8 3 1 5 6 357 358 353 354 356 356 355 354 354 352 359 2 352 353 348 356 356 351 340 335 339 337 343 335 336 343 338 339 342 343 358 348 349 352 315 298 299 302 255 247 256 264 206 279 228 264 281 312 325 277 280 282 251 250 258 270 270
4 6 5 6 359 359 355 352 354 349 356 356 353 350 352 354 352 354 350 353 348 344 346 343 344 336 341 334 335 324 338 340 342 345 343 347 352 335 354 356 336 295 300 289 349 301 319 311 291 259 21 288 339 349 57 329 277 270 267 269 281 280 277
359 359 6 360 352 346 343 343 342 344 350 350 351 341 340 344 345 344 343 348 339 338 336 346 345 329 338 327 346 330 329 329 336 330 334 336 337 343 344 351 352 310 280 299 300 338 329 348 330 21 29 4 355 332 335 340 340 299 244 240 233 235 253
340 353 358 348 335 338 330 331 333 334 340 341 341 335 331 332 334 332 331 330 333 336 347 345 344 341 341 336 344 325 341 336 341 335 332 331 324 338 318 326 327 317 282 298 291 311 5 339 337 332 14 359 10 22 8 3 332 9 359 292 223 222 239
345 339 335 325 317 321 325 319 323 325 324 332 334 330 323 323 324 324 321 317 317 325 334 335 334 326 338 340 344 333 351 341 356 339 342 335 329 322 311 302 290 276 247 268 275 288 286 336 306 280 314 8 16 333 342 334 344 321 327 326 314 249 225
329 326 318 309 300 298 302 311 318 319 311 312 324 326 321 313 315 315 318 314 312 313 311 311 310 311 323 341 342 338 336 341 340 336 340 336 332 328 322 312 301 280 267 250 260 263 286 296 288 312 298 304 7 345 327 322 303 317 306 318 324 321 319
320 311 313 305 306 299 294 302 310 313 313 310 308 312 312 312 309 311 312 307 304 302 302 305 301 301 305 319 314 331 329 330 332 330 329 324 327 327 325 322 316 314 298 280 274 261 248 274 267 253 289 301 318 288 258 276 309 311 359 31 5 313 331
309 305 311 297 301 297 297 293 301 304 304 299 292 294 298 293 299 305 307 306 305 301 299 297 296 288 284 282 284 305 310 330 325 332 323 326 330 323 319 309 311 313 308 305 295 278 287 257 286 298 256 288 319 312 295 67 288 276 322 350 331 281 335
294 306 313 311 303 301 302 297 287 283 281 288 293 274 268 276 281 291 298 302 303 301 298 298 293 285 273 280 305 325 329 331 329 327 315 313 320 315 310 307 297 291 294 295 293 296 267 269 271 273 321 310 299 342 319 333 346 72 75 312 2 348 31
297 292 289 297 301 305 300 292 283 275 273 276 268 265 265 266 270 279 283 291 294 294 292 289 293 285 284 294 302 320 325 322 318 311 301 291 309 313 315 314 313 300 289 282 283 282 299 284 270 251 234 262 262 305 300 348 359 35 308 22 337 12 35
284 281 276 274 279 289 291 288 280 275 287 295 299 301 291 279 278 270 266 268 281 290 295 292 283 278 280 288 302 300 301 310 315 310 306 301 298 300 307 308 300 294 294 298 290 284 278 271 277 276 267 258 256 207 236 207 153 187 30 54 81 270 261
262 265 268 268 270 272 274 276 278 287 298 300 300 299 292 278 275 276 274 268 268 274 287 296 299 291 281 281 280 280 288 314 321 319 312 307 301 296 297 298 304 314 313 302 292 287 280 287 268 256 263 276 322 281 115 200 141 134 134 125 140 207 221
267 265 265 263 268 270 271 277 273 284 295 300 301 300 298 286 283 282 278 276 275 279 287 290 291 293 285 273 280 281 285 300 309 307 303 299 297 297 294 295 298 305 314 329 318 311 302 325 350 335 340 9 359 336 343 316 345 191 128 175 163 241 253
264 265 264 263 262 264 265 269 271 278 290 298 300 301 299 292 293 289 287 286 285 283 279 278 281 286 289 284 275 271 274 282 287 290 298 298 293 287 285 294 297 299 309 314 302 305 286 305 345 302 324 323 360 354 323 354 312 77 10 259 221 210 196
290 285 281 275 273 274 270 266 267 275 282 290 297 299 300 298 293 286 277 274 273 272 270 271 272 270 273 280 281 260 248 253 263 271 279 287 288 287 287 286 287 289 283 288 270 255 265 271 277 277 283 284 286 284 277 263 257 262 245 264 263 278 226
286 288 287 284 283 281 277 269 261 270 274 282 291 296 296 292 281 279 276 274 267 265 263 264 266 272 273 275 276 278 268 254 245 250 274 284 284 287 286 279 265 286 295 297 284 258 246 239 246 257 253 250 251 262 294 286 257 244 278 296 294 282 279
292 289 288 290 284 279 280 279 263 268 273 273 285 294 294 289 281 271 268 263 261 259 261 261 260 259 266 272 270 270 269 256 258 258 266 271 278 280 290 280 282 294 303 300 300 300 305 311 314 316 314 315 333 10 7 353 333 274 260 264 276 276 277
295 291 286 282 283 277 282 285 284 283 281 279 285 290 289 283 276 269 264 270 262 259 258 256 260 262 263 264 268 264 261 258 256 252 253 258 274 291 293 288 296 349 311 310 315 318 312 311 311 309 309 316 323 346 26 48 324 335 4 280 268 276 277
289 288 283 277 278 285 284 286 288 288 291 291 292 293 289 285 274 273 270 272 276 266 261 264 266 268 268 265 268 259 264 263 253 240 239 244 251 266 271 271 297 289 303 311 319 304 307 308 304 312 328 317 325 331 356 61 284 317 302 285 286 279 295
284 285 283 282 283 280 279 283 286 288 283 285 287 288 287 280 276 274 275 269 271 277 275 262 261 269 270 277 280 280 279 275 269 255 236 230 239 251 263 255 249 260 265 283 282 280 273 267 274 291 301 308 314 318 314 307 193 235 253 264 266 272 263
291 289 286 282 272 271 272 271 280 282 277 274 277 279 279 273 266 266 264 266 267 265 267 274 272 261 266 272 277 282 283 284 280 278 270 250 239 239 252 242 226 254 276 270 273 277 285 280 281 276 284 293 303 299 296 297 283 225 220 231 244 251 257
284 283 284 279 269 269 270 274 274 278 278 276 276 277 277 273 265 254 255 262 256 256 258 257 261 269 268 270 275 277 278 280 281 283 280 282 281 282 271 254 247 233 230 237 254 272 274 275 276 278 281 279 276 277 279 275 271 250 222 224 223 223 239
275 279 281 280 270 266 269 269 273 271 272 273 273 275 276 275 274 263 263 242 250 250 254 254 246 254 266 278 273 275 280 285 288 288 279 280 279 279 284 283 287 268 274 279 277 277 276 268 258 265 270 270 273 268 264 264 257 249 238 239 236 235 232
286 283 282 281 278 267 263 266 266 266 265 270 274 273 276 278 279 278 265 245 237 246 243 251 248 246 269 275 274 277 283 284 281 275 276 278 277 279 276 276 281 281 276 283 285 279 275 275 267 254 266 257 249 259 249 253 255 258 247 233 246 244 243
278 274 277 280 279 276 266 267 266 267 269 269 276 281 285 286 285 280 276 267 244 230 237 235 251 262 270 272 276 279 284 285 282 280 280 287 310 317 340 318 278 266 270 269 266 266 267 268 271 254 251 249 243 251 277 283 284 263 260 246 241 247 237
278 278 278 280 282 280 272 268 271 271 271 274 277 283 287 292 292 288 281 270 248 234 232 237 249 258 267 272 272 273 264 263 275 281 281 283 284 281 272 260 266 269 268 267 269 269 270 268 269 260 250 255 269 279 271 264 272 288 291 280 266 272 273
281 280 280 280 281 282 278 271 266 269 270 270 276 278 284 294 298 299 299 287 268 255 251 258 260 254 252 240 248 256 262 265 274 274 272 265 261 255 247 243 232 239 252 261 261 264 266 264 256 258 262 266 262 262 265 244 256 266 267 271 256 199 256
272 274 277 279 280 281 280 277 272 266 263 269 268 273 278 278 283 289 291 288 276 272 277 273 273 283 299 307 299 287 297 288 273 263 263 263 261 255 255 253 262 266 256 258 259 263 267 272 263 258 245 247 247 250 255 259 257 244 260 248 245 266 260
267 266 261 264 272 279 283 278 274 271 257 257 266 271 271 265 263 262 277 256 250 262 268 263 281 277 272 264 260 264 263 263 268 268 259 262 264 261 259 259 253 250 252 252 257 259 255 259 256 257 250 248 251 254 254 250 233 255 217 271 167 234 258
273 273 272 270 263 252 265 273 271 280 282 282 281 279 281 278 277 274 256 251 253 231 225 233 229 239 238 250 244 253 254 253 249 258 266 261 256 256 253 250 246 244 251 247 245 250 251 251 246 253 247 243 244 256 252 240 209 244 214 239 252 257 255
274 276 276 275 279 270 264 270 279 284 288 288 284 280 278 279 277 276 279 277 265 238 230 231 233 238 232 240 237 244 251 250 246 245 248 254 249 245 244 248 244 243 242 243 245 246 242 244 238 245 241 237 241 240 246 246 240 234 248 235 241 243 254
276 277 277 277 277 280 281 275 277 280 281 282 285 286 283 279 271 270 273 274 273 266 253 231 233 240 236 232 235 244 247 245 242 244 241 248 252 251 238 238 245 242 233 241 239 240 242 239 236 235 240 237 238 237 236 229 244 229 230 239 230 228 233
276 276 277 277 277 278 278 280 281 282 285 287 288 288 287 281 271 264 261 264 260 252 261 251 240 238 243 229 235 241 238 243 239 239 241 234 240 251 248 236 242 244 240 238 237 235 239 238 237 232 233 236 234 232 240 231 228 234 227 232 234 238 228
269 271 276 278 279 281 282 282 283 283 282 283 284 284 284 282 274 264 257 249 243 238 247 248 245 243 242 238 234 239 237 242 241 236 239 245 243 246 249 249 242 239 243 245 242 241 239 236 235 228 223 231 235 233 236 240 233 216 214 223 217 229 237
286 274 262 264 271 273 276 277 278 278 277 276 276 277 276 278 272 259 244 240 237 239 241 243 242 243 243 235 237 238 232 240 242 241 241 244 249 248 247 248 243 239 240 240 242 241 241 233 229 226 220 217 224 230 232 235 233 225 213 220 222 223 240
282 284 287 277 270 265 270 273 274 274 274 273 273 274 275 270 258 255 243 234 235 233 243 241 245 243 246 239 241 239 236 236 241 240 241 241 240 249 244 242 239 239 238 239 236 238 234 233 230 223 220 218 223 225 228 224 223 224 220 217 224 217 223